,,,PA_Meas_PMT16A,,PR_Meas_QMR101_102,,RH_Meas_QMH101,,SR_Meas_QMS101,,TA_Meas_QMH101,,GenWind,,GenWind,
date,time,status,PA,status,PR,status,RH,status,SR,status,TA,status,DirAvg,status,SpdAvg,
2012-05-14, 00:00:04,VALID,1000.01,VALID,0,VALID,94.7141,VALID,0,VALID,23.8963,VALID,29,VALID,0.378516,
2012-05-14, 00:01:04,VALID,1000.01,VALID,0,VALID,94.6607,VALID,0,VALID,23.8378,VALID,29,VALID,0.435156,
2012-05-14, 00:02:04,VALID,1000.02,VALID,0,VALID,94.6454,VALID,0,VALID,23.7988,VALID,29,VALID,0.460547,
2012-05-14, 00:03:04,VALID,1000.02,VALID,0,VALID,94.7141,VALID,0,VALID,23.7597,VALID,29,VALID,0.560938,
2012-05-14, 00:04:04,VALID,999.99,VALID,0,VALID,94.7904,VALID,0,VALID,23.7597,VALID,29,VALID,0.585938,
2012-05-14, 00:05:04,VALID,999.951,VALID,0,VALID,94.8362,VALID,0,VALID,23.7207,VALID,29,VALID,0.532031,
2012-05-14, 00:06:04,VALID,999.903,VALID,0,VALID,94.9048,VALID,0,VALID,23.7207,VALID,29,VALID,0.507422,
2012-05-14, 00:07:04,VALID,999.879,VALID,0,VALID,94.9659,VALID,0,VALID,23.7402,VALID,29,VALID,0.501172,
2012-05-14, 00:08:04,VALID,999.849,VALID,0,VALID,95.0574,VALID,0,VALID,23.7402,VALID,29,VALID,0.509375,
2012-05-14, 00:09:04,VALID,999.822,VALID,0,VALID,95.1032,VALID,0,VALID,23.7402,VALID,44,VALID,0.580078,
2012-05-14, 00:10:04,VALID,999.844,VALID,0,VALID,95.1108,VALID,0,VALID,23.7384,VALID,44,VALID,0.650781,
2012-05-14, 00:11:04,VALID,999.802,VALID,0,VALID,95.0956,VALID,0,VALID,23.7402,VALID,44,VALID,0.751562,
2012-05-14, 00:12:04,VALID,999.785,VALID,0,VALID,95.0345,VALID,0,VALID,23.7402,VALID,48,VALID,0.829687,
2012-05-14, 00:13:04,VALID,999.765,VALID,0,VALID,94.9506,VALID,0,VALID,23.7189,VALID,50,VALID,0.874609,
2012-05-14, 00:14:04,VALID,999.797,VALID,0,VALID,94.882,VALID,0,VALID,23.7207,VALID,50,VALID,0.883984,
2012-05-14, 00:15:04,VALID,999.797,VALID,0,VALID,94.8362,VALID,0,VALID,23.7402,VALID,50,VALID,0.79375,
2012-05-14, 00:16:04,VALID,999.789,VALID,0,VALID,94.7675,VALID,0,VALID,23.7207,VALID,51,VALID,0.779297,
2012-05-14, 00:17:04,VALID,999.774,VALID,0,VALID,94.6988,VALID,0,VALID,23.7207,VALID,55,VALID,0.862891,
2012-05-14, 00:18:04,VALID,999.747,VALID,0,VALID,94.6149,VALID,0,VALID,23.7207,VALID,60,VALID,0.868359,
2012-05-14, 00:19:04,VALID,999.756,VALID,0,VALID,94.5234,VALID,0,VALID,23.7402,VALID,60,VALID,0.801562,
2012-05-14, 00:20:04,VALID,999.688,VALID,0,VALID,94.4013,VALID,0,VALID,23.7402,VALID,60,VALID,0.786719,
2012-05-14, 00:21:04,VALID,999.649,VALID,0,VALID,94.3174,VALID,0,VALID,23.7402,VALID,70,VALID,0.874609,
2012-05-14, 00:22:04,VALID,999.634,VALID,0,VALID,94.2868,VALID,0,VALID,23.7207,VALID,70,VALID,0.717578,
2012-05-14, 00:23:04,VALID,999.618,VALID,0,VALID,94.2487,VALID,0,VALID,23.7207,VALID,70,VALID,0.673047,
2012-05-14, 00:24:04,VALID,999.593,VALID,0,VALID,94.2411,VALID,0,VALID,23.7012,VALID,70,VALID,0.519531,
2012-05-14, 00:25:04,VALID,999.596,VALID,0,VALID,94.2563,VALID,0,VALID,23.6799,VALID,70,VALID,0.575,
2012-05-14, 00:26:04,VALID,999.587,VALID,0,VALID,94.264,VALID,0,VALID,23.6817,VALID,70,VALID,0.426562,
2012-05-14, 00:27:04,VALID,999.572,VALID,0,VALID,94.264,VALID,0,VALID,23.6622,VALID,70,VALID,0.43125,
2012-05-14, 00:28:04,VALID,999.561,VALID,0,VALID,94.2868,VALID,0,VALID,23.6817,VALID,70,VALID,0.471875,
2012-05-14, 00:29:04,VALID,999.58,VALID,0,VALID,94.3021,VALID,0,VALID,23.6817,VALID,70,VALID,0.357812,
2012-05-14, 00:30:04,VALID,999.568,VALID,0,VALID,94.2945,VALID,0,VALID,23.6604,VALID,70,VALID,0.205469,
2012-05-14, 00:31:04,VALID,999.552,VALID,0,VALID,94.2868,VALID,0,VALID,23.6622,VALID,70,VALID,0.132031,
2012-05-14, 00:32:04,VALID,999.546,VALID,0,VALID,94.2411,VALID,0,VALID,23.6427,VALID,70,VALID,0.0777344,
2012-05-14, 00:33:04,VALID,999.561,VALID,0,VALID,94.2716,VALID,0,VALID,23.6232,VALID,70,VALID,0.106641,
2012-05-14, 00:34:04,VALID,999.532,VALID,0,VALID,94.3631,VALID,0,VALID,23.6232,VALID,70,VALID,0.39375,
2012-05-14, 00:35:04,VALID,999.505,VALID,0,VALID,94.5005,VALID,0,VALID,23.6427,VALID,70,VALID,0.297266,
2012-05-14, 00:36:04,VALID,999.484,VALID,0,VALID,94.5462,VALID,0,VALID,23.6232,VALID,70,VALID,0.412891,
2012-05-14, 00:37:04,VALID,999.496,VALID,0,VALID,94.5997,VALID,0,VALID,23.6427,VALID,70,VALID,0.460547,
2012-05-14, 00:38:04,VALID,999.511,VALID,0,VALID,94.6302,VALID,0,VALID,23.6232,VALID,70,VALID,0.028125,
2012-05-14, 00:39:04,VALID,999.492,VALID,0,VALID,94.6149,VALID,0,VALID,23.6232,VALID,70,VALID,0,
2012-05-14, 00:40:04,VALID,999.499,VALID,0,VALID,94.5844,VALID,0,VALID,23.6036,VALID,70,VALID,0,
2012-05-14, 00:41:04,VALID,999.519,VALID,0,VALID,94.592,VALID,0,VALID,23.6036,VALID,70,VALID,0,
2012-05-14, 00:42:04,VALID,999.498,VALID,0,VALID,94.592,VALID,0,VALID,23.5841,VALID,70,VALID,0,
2012-05-14, 00:43:04,VALID,999.518,VALID,0,VALID,94.6073,VALID,0,VALID,23.5841,VALID,70,VALID,0,
2012-05-14, 00:44:04,VALID,999.527,VALID,0,VALID,94.6378,VALID,0,VALID,23.5841,VALID,70,VALID,0,
2012-05-14, 00:45:04,VALID,999.514,VALID,0,VALID,94.6454,VALID,0,VALID,23.5841,VALID,70,VALID,0.0648438,
2012-05-14, 00:46:04,VALID,999.53,VALID,0,VALID,94.6836,VALID,0,VALID,23.6036,VALID,70,VALID,0.158984,
2012-05-14, 00:47:04,VALID,999.552,VALID,0,VALID,94.6988,VALID,0,VALID,23.6036,VALID,70,VALID,0.251563,
2012-05-14, 00:48:04,VALID,999.551,VALID,0,VALID,94.6683,VALID,0,VALID,23.6232,VALID,70,VALID,0.244922,
2012-05-14, 00:49:04,VALID,999.548,VALID,0,VALID,94.6073,VALID,0,VALID,23.6427,VALID,70,VALID,0.172656,
2012-05-14, 00:50:04,VALID,999.548,VALID,0,VALID,94.5157,VALID,0,VALID,23.6427,VALID,70,VALID,0.0105469,
2012-05-14, 00:51:04,VALID,999.552,VALID,0,VALID,94.3937,VALID,0,VALID,23.6232,VALID,70,VALID,0.0308594,
2012-05-14, 00:52:04,VALID,999.555,VALID,0,VALID,94.2716,VALID,0,VALID,23.5628,VALID,70,VALID,0,
2012-05-14, 00:53:04,VALID,999.563,VALID,0,VALID,94.1648,VALID,0,VALID,23.5646,VALID,70,VALID,0,
2012-05-14, 00:54:04,VALID,999.551,VALID,0,VALID,94.18,VALID,0,VALID,23.5451,VALID,70,VALID,0,
2012-05-14, 00:55:04,VALID,999.501,VALID,0,VALID,94.2258,VALID,0,VALID,23.5043,VALID,70,VALID,0,
2012-05-14, 00:56:04,VALID,999.51,VALID,0,VALID,94.264,VALID,0,VALID,23.5256,VALID,70,VALID,0,
2012-05-14, 00:57:04,VALID,999.507,VALID,0,VALID,94.3326,VALID,0,VALID,23.5061,VALID,70,VALID,0,
2012-05-14, 00:58:04,VALID,999.481,VALID,0,VALID,94.4242,VALID,0,VALID,23.5061,VALID,70,VALID,0,
2012-05-14, 00:59:04,VALID,999.473,VALID,0,VALID,94.4852,VALID,0,VALID,23.4848,VALID,70,VALID,0,
2012-05-14, 01:00:04,VALID,999.418,VALID,0,VALID,94.5386,VALID,0,VALID,23.5061,VALID,70,VALID,0,
2012-05-14, 01:01:04,VALID,999.396,VALID,0,VALID,94.5157,VALID,0,VALID,23.5061,VALID,70,VALID,0,
2012-05-14, 01:02:04,VALID,999.373,VALID,0,VALID,94.5157,VALID,0,VALID,23.4866,VALID,70,VALID,0,
2012-05-14, 01:03:04,VALID,999.377,VALID,0,VALID,94.531,VALID,0,VALID,23.4866,VALID,70,VALID,0,
2012-05-14, 01:04:05,VALID,999.355,VALID,0,VALID,94.5615,VALID,0,VALID,23.4866,VALID,70,VALID,0.126563,
2012-05-14, 01:05:05,VALID,999.359,VALID,0,VALID,94.5462,VALID,0,VALID,23.4866,VALID,70,VALID,0.230469,
2012-05-14, 01:06:05,VALID,999.361,VALID,0,VALID,94.5157,VALID,0,VALID,23.5061,VALID,70,VALID,0.112891,
2012-05-14, 01:07:05,VALID,999.347,VALID,0,VALID,94.4547,VALID,0,VALID,23.4866,VALID,70,VALID,0.227734,
2012-05-14, 01:08:05,VALID,999.358,VALID,0,VALID,94.4089,VALID,0,VALID,23.4671,VALID,70,VALID,0.257422,
2012-05-14, 01:09:05,VALID,999.346,VALID,0,VALID,94.4394,VALID,0,VALID,23.4671,VALID,70,VALID,0.198047,
2012-05-14, 01:10:05,VALID,999.333,VALID,0,VALID,94.531,VALID,0,VALID,23.4475,VALID,70,VALID,0.175,
2012-05-14, 01:11:05,VALID,999.305,VALID,0,VALID,94.6073,VALID,0,VALID,23.4067,VALID,70,VALID,0.213281,
2012-05-14, 01:12:05,VALID,999.281,VALID,0,VALID,94.676,VALID,0,VALID,23.428,VALID,70,VALID,0.253516,
2012-05-14, 01:13:05,VALID,999.253,VALID,0,VALID,94.7294,VALID,0,VALID,23.4085,VALID,70,VALID,0.232031,
2012-05-14, 01:14:05,VALID,999.223,VALID,0,VALID,94.7065,VALID,0,VALID,23.389,VALID,70,VALID,0.359766,
2012-05-14, 01:15:05,VALID,999.201,VALID,0,VALID,94.737,VALID,0,VALID,23.3677,VALID,54,VALID,0.645312,
2012-05-14, 01:16:05,VALID,999.171,VALID,0,VALID,94.7751,VALID,0,VALID,23.389,VALID,54,VALID,0.745703,
2012-05-14, 01:17:05,VALID,999.148,VALID,0,VALID,94.7294,VALID,0,VALID,23.3695,VALID,57,VALID,1.00664,
2012-05-14, 01:18:05,VALID,999.125,VALID,0,VALID,94.6302,VALID,0,VALID,23.3695,VALID,57,VALID,1.03086,
2012-05-14, 01:19:05,VALID,999.113,VALID,0,VALID,94.6149,VALID,0,VALID,23.389,VALID,57,VALID,0.939062,
2012-05-14, 01:20:05,VALID,999.11,VALID,0,VALID,94.5844,VALID,0,VALID,23.428,VALID,57,VALID,0.812109,
2012-05-14, 01:21:05,VALID,999.1,VALID,0,VALID,94.5462,VALID,0,VALID,23.428,VALID,57,VALID,0.664063,
2012-05-14, 01:22:05,VALID,999.066,VALID,0,VALID,94.531,VALID,0,VALID,23.4085,VALID,57,VALID,0.55,
2012-05-14, 01:23:05,VALID,999.032,VALID,0,VALID,94.531,VALID,0,VALID,23.4085,VALID,57,VALID,0.738281,
2012-05-14, 01:24:05,VALID,999.014,VALID,0,VALID,94.5386,VALID,0,VALID,23.428,VALID,57,VALID,0.542188,
2012-05-14, 01:25:05,VALID,999.001,VALID,0,VALID,94.531,VALID,0,VALID,23.428,VALID,57,VALID,0.434766,
2012-05-14, 01:26:05,VALID,998.984,VALID,0,VALID,94.5386,VALID,0,VALID,23.428,VALID,57,VALID,0.384375,
2012-05-14, 01:27:05,VALID,999,VALID,0,VALID,94.5615,VALID,0,VALID,23.4085,VALID,57,VALID,0.416797,
2012-05-14, 01:28:05,VALID,998.978,VALID,0,VALID,94.5844,VALID,0,VALID,23.389,VALID,57,VALID,0.507422,
2012-05-14, 01:29:05,VALID,998.989,VALID,0,VALID,94.6149,VALID,0,VALID,23.3695,VALID,57,VALID,0.522656,
2012-05-14, 01:30:05,VALID,999.009,VALID,0,VALID,94.6607,VALID,0,VALID,23.3695,VALID,57,VALID,0.510156,
2012-05-14, 01:31:05,VALID,999.039,VALID,0,VALID,94.7141,VALID,0,VALID,23.35,VALID,57,VALID,0.557422,
2012-05-14, 01:32:05,VALID,999.006,VALID,0,VALID,94.7446,VALID,0,VALID,23.35,VALID,57,VALID,0.309375,
2012-05-14, 01:33:05,VALID,999.027,VALID,0,VALID,94.7523,VALID,0,VALID,23.3305,VALID,57,VALID,0.0929687,
2012-05-14, 01:34:05,VALID,999.008,VALID,0,VALID,94.7294,VALID,0,VALID,23.311,VALID,57,VALID,0,
2012-05-14, 01:35:05,VALID,999.01,VALID,0,VALID,94.7065,VALID,0,VALID,23.2719,VALID,57,VALID,0,
2012-05-14, 01:36:05,VALID,999.041,VALID,0,VALID,94.6988,VALID,0,VALID,23.2524,VALID,57,VALID,0,
2012-05-14, 01:37:05,VALID,999.037,VALID,0,VALID,94.6912,VALID,0,VALID,23.2347,VALID,57,VALID,0,
2012-05-14, 01:38:05,VALID,999.023,VALID,0,VALID,94.737,VALID,0,VALID,23.2329,VALID,57,VALID,0,
2012-05-14, 01:39:05,VALID,999.001,VALID,0,VALID,94.798,VALID,0,VALID,23.2117,VALID,57,VALID,0.101563,
2012-05-14, 01:40:05,VALID,999.009,VALID,0,VALID,94.882,VALID,0,VALID,23.2329,VALID,57,VALID,0.261328,
2012-05-14, 01:41:05,VALID,999.004,VALID,0,VALID,94.943,VALID,0,VALID,23.2329,VALID,57,VALID,0.225781,
2012-05-14, 01:42:05,VALID,998.998,VALID,0,VALID,95.0345,VALID,0,VALID,23.2329,VALID,57,VALID,0.252734,
2012-05-14, 01:43:05,VALID,999.009,VALID,0,VALID,95.0498,VALID,0,VALID,23.2329,VALID,57,VALID,0.351172,
2012-05-14, 01:44:05,VALID,998.978,VALID,0,VALID,95.1032,VALID,0,VALID,23.2329,VALID,57,VALID,0.413281,
2012-05-14, 01:45:05,VALID,998.992,VALID,0,VALID,95.1261,VALID,0,VALID,23.2524,VALID,57,VALID,0.363672,
2012-05-14, 01:46:05,VALID,999.006,VALID,0,VALID,95.1566,VALID,0,VALID,23.2524,VALID,57,VALID,0.372656,
2012-05-14, 01:47:05,VALID,998.989,VALID,0,VALID,95.1719,VALID,0,VALID,23.2719,VALID,57,VALID,0.419141,
2012-05-14, 01:48:05,VALID,999.02,VALID,0,VALID,95.1795,VALID,0,VALID,23.2719,VALID,57,VALID,0.364844,
2012-05-14, 01:49:05,VALID,999.005,VALID,0,VALID,95.1643,VALID,0,VALID,23.2312,VALID,57,VALID,0.376953,
2012-05-14, 01:50:05,VALID,999.031,VALID,0,VALID,95.1871,VALID,0,VALID,23.2719,VALID,57,VALID,0.339453,
2012-05-14, 01:51:05,VALID,998.993,VALID,0,VALID,95.1719,VALID,0,VALID,23.2524,VALID,57,VALID,0.387109,
2012-05-14, 01:52:05,VALID,998.996,VALID,0,VALID,95.149,VALID,0,VALID,23.2524,VALID,57,VALID,0.355469,
2012-05-14, 01:53:05,VALID,999.005,VALID,0,VALID,95.149,VALID,0,VALID,23.2329,VALID,57,VALID,0.301172,
2012-05-14, 01:54:05,VALID,998.99,VALID,0,VALID,95.1185,VALID,0,VALID,23.2329,VALID,57,VALID,0.228906,
2012-05-14, 01:55:05,VALID,998.969,VALID,0,VALID,95.1414,VALID,0,VALID,23.2329,VALID,57,VALID,0.197656,
2012-05-14, 01:56:05,VALID,998.994,VALID,0,VALID,95.1185,VALID,0,VALID,23.2524,VALID,57,VALID,0.155469,
2012-05-14, 01:57:05,VALID,998.977,VALID,0,VALID,95.1414,VALID,0,VALID,23.2524,VALID,57,VALID,0,
2012-05-14, 01:58:05,VALID,998.988,VALID,0,VALID,95.1108,VALID,0,VALID,23.2524,VALID,57,VALID,0,
2012-05-14, 01:59:05,VALID,998.985,VALID,0,VALID,95.149,VALID,0,VALID,23.2737,VALID,57,VALID,0.0871094,
2012-05-14, 02:00:05,VALID,999.003,VALID,0,VALID,95.1337,VALID,0,VALID,23.2329,VALID,57,VALID,0.243359,
2012-05-14, 02:01:05,VALID,998.994,VALID,0,VALID,95.149,VALID,0,VALID,23.2329,VALID,57,VALID,0.358594,
2012-05-14, 02:02:05,VALID,999.02,VALID,0,VALID,95.1643,VALID,0,VALID,23.2134,VALID,57,VALID,0.316406,
2012-05-14, 02:03:05,VALID,999.03,VALID,0,VALID,95.1261,VALID,0,VALID,23.1939,VALID,57,VALID,0.299219,
2012-05-14, 02:04:05,VALID,999.021,VALID,0,VALID,95.1261,VALID,0,VALID,23.1744,VALID,57,VALID,0.29375,
2012-05-14, 02:05:05,VALID,999.01,VALID,0,VALID,95.149,VALID,0,VALID,23.1744,VALID,57,VALID,0.241406,
2012-05-14, 02:06:05,VALID,999.052,VALID,0,VALID,95.1643,VALID,0,VALID,23.1549,VALID,57,VALID,0.186719,
2012-05-14, 02:07:05,VALID,999.029,VALID,0,VALID,95.1795,VALID,0,VALID,23.1354,VALID,57,VALID,0.0347656,
2012-05-14, 02:08:05,VALID,999,VALID,0,VALID,95.2024,VALID,0,VALID,23.1354,VALID,57,VALID,0,
2012-05-14, 02:09:05,VALID,998.999,VALID,0,VALID,95.2177,VALID,0,VALID,23.1354,VALID,57,VALID,0,
2012-05-14, 02:10:05,VALID,999.016,VALID,0,VALID,95.2405,VALID,0,VALID,23.1159,VALID,57,VALID,0,
2012-05-14, 02:11:05,VALID,999,VALID,0,VALID,95.2634,VALID,0,VALID,23.0964,VALID,57,VALID,0,
2012-05-14, 02:12:05,VALID,998.99,VALID,0,VALID,95.2558,VALID,0,VALID,23.0769,VALID,57,VALID,0.121094,
2012-05-14, 02:13:05,VALID,999.024,VALID,0,VALID,95.2863,VALID,0,VALID,23.0378,VALID,57,VALID,0.297266,
2012-05-14, 02:14:05,VALID,999.002,VALID,0,VALID,95.3168,VALID,0,VALID,23.0361,VALID,57,VALID,0.363672,
2012-05-14, 02:15:05,VALID,998.991,VALID,0,VALID,95.3626,VALID,0,VALID,23.0573,VALID,57,VALID,0.258594,
2012-05-14, 02:16:05,VALID,998.97,VALID,0,VALID,95.3703,VALID,0,VALID,23.0573,VALID,57,VALID,0.439453,
2012-05-14, 02:17:05,VALID,998.935,VALID,0,VALID,95.4084,VALID,0,VALID,23.0573,VALID,57,VALID,0.592188,
2012-05-14, 02:18:05,VALID,998.957,VALID,0,VALID,95.4465,VALID,0,VALID,23.0556,VALID,57,VALID,0.701563,
2012-05-14, 02:19:05,VALID,998.963,VALID,0,VALID,95.4465,VALID,0,VALID,23.0769,VALID,57,VALID,0.647656,
2012-05-14, 02:20:05,VALID,998.971,VALID,0,VALID,95.4847,VALID,0,VALID,23.0378,VALID,57,VALID,0.708984,
2012-05-14, 02:21:05,VALID,998.973,VALID,0,VALID,95.4618,VALID,0,VALID,23.0183,VALID,40,VALID,0.871875,
2012-05-14, 02:22:05,VALID,999.004,VALID,0,VALID,95.4389,VALID,0,VALID,22.9988,VALID,36,VALID,0.933594,
2012-05-14, 02:23:05,VALID,998.979,VALID,0,VALID,95.4008,VALID,0,VALID,22.9793,VALID,28,VALID,0.911328,
2012-05-14, 02:24:05,VALID,998.962,VALID,0,VALID,95.3703,VALID,0,VALID,22.9385,VALID,28,VALID,0.760547,
2012-05-14, 02:25:05,VALID,998.919,VALID,0,VALID,95.3474,VALID,0,VALID,22.9598,VALID,28,VALID,0.85625,
2012-05-14, 02:26:05,VALID,998.902,VALID,0,VALID,95.3245,VALID,0,VALID,22.9403,VALID,28,VALID,0.840234,
2012-05-14, 02:27:05,VALID,998.913,VALID,0,VALID,95.2634,VALID,0,VALID,22.9403,VALID,38,VALID,0.744141,
2012-05-14, 02:28:05,VALID,998.835,VALID,0,VALID,95.2558,VALID,0,VALID,22.9403,VALID,54,VALID,0.980469,
2012-05-14, 02:29:05,VALID,998.858,VALID,0,VALID,95.2863,VALID,0,VALID,22.9598,VALID,57,VALID,0.9875,
2012-05-14, 02:30:05,VALID,998.854,VALID,0,VALID,95.3168,VALID,0,VALID,22.9598,VALID,57,VALID,1.04766,
2012-05-14, 02:31:05,VALID,998.836,VALID,0,VALID,95.3397,VALID,0,VALID,22.9793,VALID,57,VALID,0.978516,
2012-05-14, 02:32:05,VALID,998.872,VALID,0,VALID,95.3397,VALID,0,VALID,22.9793,VALID,57,VALID,0.880859,
2012-05-14, 02:33:05,VALID,998.87,VALID,0,VALID,95.3779,VALID,0,VALID,22.9793,VALID,54,VALID,0.95,
2012-05-14, 02:34:05,VALID,998.879,VALID,0,VALID,95.3855,VALID,0,VALID,22.9581,VALID,48,VALID,0.899219,
2012-05-14, 02:35:05,VALID,998.874,VALID,0,VALID,95.4084,VALID,0,VALID,22.9793,VALID,48,VALID,0.830859,
2012-05-14, 02:36:05,VALID,998.852,VALID,0,VALID,95.4313,VALID,0,VALID,22.9581,VALID,48,VALID,0.678516,
2012-05-14, 02:37:05,VALID,998.839,VALID,0,VALID,95.4389,VALID,0,VALID,22.9598,VALID,48,VALID,0.630859,
2012-05-14, 02:38:05,VALID,998.812,VALID,0,VALID,95.4389,VALID,0,VALID,22.9598,VALID,48,VALID,0.585938,
2012-05-14, 02:39:05,VALID,998.839,VALID,0,VALID,95.4542,VALID,0,VALID,22.9598,VALID,48,VALID,0.526172,
2012-05-14, 02:40:05,VALID,998.825,VALID,0,VALID,95.4618,VALID,0,VALID,22.9598,VALID,48,VALID,0.505469,
2012-05-14, 02:41:05,VALID,998.789,VALID,0,VALID,95.4847,VALID,0,VALID,22.9793,VALID,48,VALID,0.538281,
2012-05-14, 02:42:05,VALID,998.799,VALID,0,VALID,95.5152,VALID,0,VALID,22.9793,VALID,48,VALID,0.639453,
2012-05-14, 02:43:05,VALID,998.805,VALID,0,VALID,95.5,VALID,0,VALID,22.9793,VALID,48,VALID,0.601563,
2012-05-14, 02:44:05,VALID,998.799,VALID,0,VALID,95.5,VALID,0,VALID,22.9385,VALID,48,VALID,0.533984,
2012-05-14, 02:45:05,VALID,998.827,VALID,0,VALID,95.5,VALID,0,VALID,22.9598,VALID,48,VALID,0.357031,
2012-05-14, 02:46:05,VALID,998.843,VALID,0,VALID,95.4771,VALID,0,VALID,22.9403,VALID,48,VALID,0.221875,
2012-05-14, 02:47:05,VALID,998.878,VALID,0,VALID,95.4694,VALID,0,VALID,22.919,VALID,48,VALID,0.185937,
2012-05-14, 02:48:05,VALID,998.842,VALID,0,VALID,95.4771,VALID,0,VALID,22.9208,VALID,48,VALID,0.314844,
2012-05-14, 02:49:05,VALID,998.856,VALID,0,VALID,95.4542,VALID,0,VALID,22.8995,VALID,48,VALID,0.410937,
2012-05-14, 02:50:05,VALID,998.868,VALID,0,VALID,95.4313,VALID,0,VALID,22.9208,VALID,48,VALID,0.432422,
2012-05-14, 02:51:05,VALID,998.814,VALID,0,VALID,95.4542,VALID,0,VALID,22.9403,VALID,48,VALID,0.462891,
2012-05-14, 02:52:05,VALID,998.8,VALID,0,VALID,95.4542,VALID,0,VALID,22.9385,VALID,48,VALID,0.403516,
2012-05-14, 02:53:05,VALID,998.793,VALID,0,VALID,95.4465,VALID,0,VALID,22.9598,VALID,48,VALID,0.362891,
2012-05-14, 02:54:05,VALID,998.804,VALID,0,VALID,95.4389,VALID,0,VALID,22.9598,VALID,48,VALID,0.34375,
2012-05-14, 02:55:05,VALID,998.84,VALID,0,VALID,95.4313,VALID,0,VALID,22.9598,VALID,48,VALID,0.345703,
2012-05-14, 02:56:05,VALID,998.832,VALID,0,VALID,95.4237,VALID,0,VALID,22.9598,VALID,48,VALID,0.00195313,
2012-05-14, 02:57:05,VALID,998.88,VALID,0,VALID,95.4237,VALID,0,VALID,22.9793,VALID,48,VALID,0,
2012-05-14, 02:58:05,VALID,998.896,VALID,0,VALID,95.416,VALID,0,VALID,22.9598,VALID,48,VALID,0,
2012-05-14, 02:59:05,VALID,998.903,VALID,0,VALID,95.4008,VALID,0,VALID,22.9793,VALID,48,VALID,0,
2012-05-14, 03:00:05,VALID,998.91,VALID,0,VALID,95.4084,VALID,0,VALID,22.9988,VALID,48,VALID,0,
2012-05-14, 03:01:05,VALID,998.963,VALID,0,VALID,95.3931,VALID,0,VALID,22.9988,VALID,48,VALID,0,
2012-05-14, 03:02:05,VALID,998.966,VALID,0,VALID,95.3703,VALID,0,VALID,23.0183,VALID,48,VALID,0,
2012-05-14, 03:03:05,VALID,999.001,VALID,0,VALID,95.3626,VALID,0,VALID,23.0378,VALID,48,VALID,0,
2012-05-14, 03:04:05,VALID,999.022,VALID,0,VALID,95.3321,VALID,0,VALID,23.0573,VALID,48,VALID,0,
2012-05-14, 03:05:05,VALID,999.048,VALID,0,VALID,95.3092,VALID,0,VALID,23.0573,VALID,48,VALID,0,
2012-05-14, 03:06:05,VALID,999.052,VALID,0,VALID,95.2634,VALID,0,VALID,23.0573,VALID,48,VALID,0,
2012-05-14, 03:07:05,VALID,999.067,VALID,0,VALID,95.2329,VALID,0,VALID,23.0378,VALID,48,VALID,0,
2012-05-14, 03:08:05,VALID,999.078,VALID,0,VALID,95.149,VALID,0,VALID,23.0378,VALID,48,VALID,0.330859,
2012-05-14, 03:09:05,VALID,999.038,VALID,0,VALID,95.1108,VALID,0,VALID,23.0183,VALID,48,VALID,0.360938,
2012-05-14, 03:10:05,VALID,999.01,VALID,0,VALID,95.0422,VALID,0,VALID,23.0183,VALID,48,VALID,0.417578,
2012-05-14, 03:11:05,VALID,999.045,VALID,0,VALID,94.9811,VALID,0,VALID,22.9776,VALID,48,VALID,0.506641,
2012-05-14, 03:12:05,VALID,999.053,VALID,0,VALID,94.8972,VALID,0,VALID,22.9793,VALID,48,VALID,0.614453,
2012-05-14, 03:13:05,VALID,999.065,VALID,0,VALID,94.882,VALID,0,VALID,22.9598,VALID,48,VALID,0.658203,
2012-05-14, 03:14:05,VALID,999.095,VALID,0,VALID,94.8591,VALID,0,VALID,22.9403,VALID,48,VALID,0.614453,
2012-05-14, 03:15:05,VALID,999.103,VALID,0,VALID,94.8285,VALID,0,VALID,22.9208,VALID,48,VALID,0.459766,
2012-05-14, 03:16:05,VALID,999.095,VALID,0,VALID,94.7828,VALID,0,VALID,22.8818,VALID,48,VALID,0.319531,
2012-05-14, 03:17:05,VALID,999.106,VALID,0,VALID,94.7599,VALID,0,VALID,22.8623,VALID,48,VALID,0.242578,
2012-05-14, 03:18:05,VALID,999.111,VALID,0,VALID,94.798,VALID,0,VALID,22.8232,VALID,48,VALID,0.146094,
2012-05-14, 03:19:05,VALID,999.125,VALID,0,VALID,94.8133,VALID,0,VALID,22.8037,VALID,48,VALID,0.240234,
2012-05-14, 03:20:05,VALID,999.136,VALID,0,VALID,94.8896,VALID,0,VALID,22.7842,VALID,48,VALID,0.208984,
2012-05-14, 03:21:05,VALID,999.137,VALID,0,VALID,94.9354,VALID,0,VALID,22.7825,VALID,48,VALID,0.250391,
2012-05-14, 03:22:05,VALID,999.154,VALID,0,VALID,95.0117,VALID,0,VALID,22.8037,VALID,48,VALID,0.160156,
2012-05-14, 03:23:05,VALID,999.154,VALID,0,VALID,95.0574,VALID,0,VALID,22.763,VALID,48,VALID,0,
2012-05-14, 03:24:05,VALID,999.143,VALID,0,VALID,95.1032,VALID,0,VALID,22.7842,VALID,48,VALID,0,
2012-05-14, 03:25:05,VALID,999.145,VALID,0,VALID,95.149,VALID,0,VALID,22.7647,VALID,48,VALID,0,
2012-05-14, 03:26:05,VALID,999.16,VALID,0,VALID,95.149,VALID,0,VALID,22.7452,VALID,48,VALID,0,
2012-05-14, 03:27:05,VALID,999.158,VALID,0,VALID,95.1795,VALID,0,VALID,22.7452,VALID,48,VALID,0,
2012-05-14, 03:28:05,VALID,999.141,VALID,0,VALID,95.2405,VALID,0,VALID,22.7452,VALID,48,VALID,0,
2012-05-14, 03:29:05,VALID,999.161,VALID,0,VALID,95.2787,VALID,0,VALID,22.7452,VALID,48,VALID,0,
2012-05-14, 03:30:05,VALID,999.19,VALID,0,VALID,95.3168,VALID,0,VALID,22.7647,VALID,48,VALID,0.121094,
2012-05-14, 03:31:05,VALID,999.172,VALID,0,VALID,95.3626,VALID,0,VALID,22.7647,VALID,48,VALID,0.235547,
2012-05-14, 03:32:05,VALID,999.192,VALID,0,VALID,95.3626,VALID,0,VALID,22.7842,VALID,48,VALID,0.13125,
2012-05-14, 03:33:05,VALID,999.197,VALID,0,VALID,95.3931,VALID,0,VALID,22.7842,VALID,48,VALID,0,
2012-05-14, 03:34:05,VALID,999.224,VALID,0,VALID,95.3931,VALID,0,VALID,22.7647,VALID,48,VALID,0,
2012-05-14, 03:35:05,VALID,999.233,VALID,0,VALID,95.3855,VALID,0,VALID,22.7452,VALID,48,VALID,0,
2012-05-14, 03:36:05,VALID,999.234,VALID,0,VALID,95.416,VALID,0,VALID,22.7257,VALID,48,VALID,0,
2012-05-14, 03:37:05,VALID,999.24,VALID,0,VALID,95.4084,VALID,0,VALID,22.7257,VALID,48,VALID,0,
2012-05-14, 03:38:05,VALID,999.223,VALID,0,VALID,95.4084,VALID,0,VALID,22.7452,VALID,48,VALID,0,
2012-05-14, 03:39:05,VALID,999.23,VALID,0,VALID,95.4465,VALID,0,VALID,22.724,VALID,48,VALID,0.339844,
2012-05-14, 03:40:05,VALID,999.258,VALID,0,VALID,95.4542,VALID,0,VALID,22.7842,VALID,139,VALID,0.448438,
2012-05-14, 03:41:05,VALID,999.257,VALID,0,VALID,95.4618,VALID,0,VALID,22.8232,VALID,151,VALID,1.03477,
2012-05-14, 03:42:05,VALID,999.256,VALID,0,VALID,95.4694,VALID,0,VALID,22.9208,VALID,163,VALID,0.861328,
2012-05-14, 03:43:05,VALID,999.281,VALID,0,VALID,95.4542,VALID,0,VALID,22.9988,VALID,169,VALID,0.568359,
2012-05-14, 03:44:05,VALID,999.288,VALID,0,VALID,95.3779,VALID,0,VALID,23.0556,VALID,173,VALID,0.992188,
2012-05-14, 03:45:05,VALID,999.335,VALID,0,VALID,95.2634,VALID,0,VALID,23.1744,VALID,177,VALID,0.342187,
2012-05-14, 03:46:05,VALID,999.323,VALID,0,VALID,95.0651,VALID,0,VALID,23.2329,VALID,177,VALID,0.439844,
2012-05-14, 03:47:05,VALID,999.34,VALID,0,VALID,94.7294,VALID,0,VALID,23.2524,VALID,177,VALID,0.224219,
2012-05-14, 03:48:05,VALID,999.36,VALID,0,VALID,94.3784,VALID,0,VALID,23.2719,VALID,177,VALID,0.495703,
2012-05-14, 03:49:04,VALID,999.334,VALID,0,VALID,93.9588,VALID,0,VALID,23.2719,VALID,157,VALID,1.13398,
2012-05-14, 03:50:04,VALID,999.305,VALID,0,VALID,93.1882,VALID,0.104696,VALID,23.2915,VALID,173,VALID,1.64922,